Weather Roundup
Issued by NWS

Home | Current Version | Previous Version | Graphics & Text | Print | Product List | Glossary Off
Versions: 1 2 3 4 5 6 7 8 9 10 11 12 13 14 15 16 17 18 19 20 21 22 23 24 25 26 27 28 29 30 31 32 33 34 35 36 37 38 39 40 41 42 43 44 45 46 47 48 49 50

965
NZUS93 KARX 172359
HRRWXR

CURRENT HOURLY OBSERVATIONS ACROSS
MUCH OF THE UPPER MISSISSIPPI VALLEY
NATIONAL WEATHER SERVICE LA CROSSE WI
700 PM CDT THU AUG 17 2017


...SOUTHEAST MINNESOTA...


CITY           SKY/WX    TMP DP  RH WIND       PRES   REMARKS
ROCHESTER      MOSUNNY   70  64  81 NW15G23   29.79R
ROCHESTER/MAYO CLOUDY    73  61  67 NW14G30   29.79R
WINONA         PTSUNNY   70  63  78 NW8       29.74S
AUSTIN         CLOUDY    72  63  73 W13G20    29.81R
ALBERT LEA     CLOUDY    72  64  78 NW8       29.83R
DODGE CENTER   LGT RAIN  68  63  83 NW14G25   29.81R
PRESTON        PTSUNNY   69  62  76 NW12      29.80R
OWATONNA       PTSUNNY   70  66  88 NW7       29.82R
FARIBAULT      PTSUNNY   70  63  78 W10       29.81R
$$

...ELSEWHERE IN MINNESOTA...


CITY           SKY/WX    TMP DP  RH WIND       PRES   REMARKS
MINNEAPOLIS    PTSUNNY   72  61  68 NW20G25   29.78R
INTNL FALLS    CLOUDY    69  59  70 NW5       29.80F
DULUTH         DRIZZLE   61  61 100 N16G25    29.75R
RED WING       CLOUDY    72  61  68 NW8       29.75R
REDWOOD FALLS  SUNNY     74  61  63 NW10      29.85R
MANKATO        PTSUNNY   72  62  71 NW12      29.83R
WORTHINGTON    SUNNY     75  63  66 NW9       29.89S
FAIRMONT       SUNNY     73  63  70 NW8       29.86S
$$

...SOUTHWEST WISCONSIN...


CITY           SKY/WX    TMP DP  RH WIND       PRES   REMARKS
LA CROSSE      CLOUDY    73  63  70 NW15      29.73R
PRAIRIE DU CHI CLOUDY    73  62  68 W7        29.75R
BOSCOBEL       CLOUDY    73  64  73 W7        29.74S
LONE ROCK      NOT AVBL
PLATTEVILLE    CLOUDY    71  67  86 W12G20    29.77S
FORT MC COY    NOT AVBL
CAMP DOUGLAS   MOCLDY    66  61  85 W15G25    29.70R
MAUSTON-NEW LI CLOUDY    67  62  83 W13G20    29.69R
VIROQUA        CLOUDY    67  63  85 W12       29.75S
WIS DELLS      LGT RAIN  67  63  85 W14G20    29.70R
$$

...ELSEWHERE IN WISCONSIN...


CITY           SKY/WX    TMP DP  RH WIND       PRES   REMARKS
MILWAUKEE      MOCLDY    77  64  64 W16G32    29.68R
MADISON        CLOUDY    71  65  81 W8        29.69S
GREEN BAY      CLOUDY    73  68  84 SW15G25   29.57R
EAU CLAIRE     NOT AVBL
BLACK RVR FLS  CLOUDY    67  63  85 NW13G20   29.71S
MEDFORD        CLOUDY    63  60  88 NW14G22   29.66R
WAUSAU         CLOUDY    66  63  90 W17G26    29.61R
WIS RAPIDS     CLOUDY    66  63  90 W13       29.68R
MARSHFIELD     LGT RAIN  63  60  90 W14G28    29.67R FOG
RICE LAKE      CLOUDY    64  61  90 NW9G16    29.75R
$$

...NORTHEAST IOWA...


CITY           SKY/WX    TMP DP  RH WIND       PRES   REMARKS
WATERLOO       SUNNY     73  61  65 W10G22    29.81R
DUBUQUE        CLOUDY    72  63  73 W13       29.79R
DECORAH        CLOUDY    72  64  78 W9G17     29.77S
MASON CITY     PTSUNNY   71  61  70 NW12      29.86R
CHARLES CITY   PTSUNNY   72  64  78 W10G17    29.82S
OELWEIN        PTSUNNY   73  64  73 W14G24    29.82R
$$

...ELSEWHERE IN IOWA...


CITY           SKY/WX    TMP DP  RH WIND       PRES   REMARKS
DES MOINES     MOSUNNY   81  59  47 NW17      29.86R
IOWA CITY      CLOUDY    79  65  62 W10       29.83R
FORT DODGE     MOSUNNY   75  63  64 W8        29.87S
MARSHALLTOWN   MOSUNNY   74  65  73 W8        29.84S
CEDAR RAPIDS   CLOUDY    74  64  71 W14G23    29.82R
$$

...NORTHERN ILLINOIS...


CITY           SKY/WX    TMP DP  RH WIND       PRES   REMARKS
CHICAGO-OHARE  MOCLDY    80  64  58 W12       29.72S
CHICAGO-MIDWAY MOCLDY    80  65  59 W16       29.73S
MOLINE         MOCLDY    78  63  59 W16       29.80R
ROCKFORD       MOCLDY    76  65  68 W12       29.75S
PEORIA         MOCLDY    82  66  58 NW10G20   29.80R
$$

NOTE: "FAIR" INDICATES FEW OR NO CLOUDS BELOW 12,000 FEET WITH NO
SIGNIFICANT WEATHER AND/OR OBSTRUCTIONS TO VISIBILITY. WIND
SPEEDS ARE IN MILES-PER-HOUR.




USA.gov is the U.S. government's official web portal to all federal, state and local government web resources and services.